| time (UTC) | temp F | wind direction | speed MPH | gust MPH | rain 1hr in | rain 24hr in | rain mn in | humidity % | barometer mb |
| 20260502220924 | 49 | 0 | 0.0 | 0.0 | 0.01 | 0.13 | 0.13 | 98 | 1007.9 |
| 20260502220002 | 50 | 183 | 0.0 | 1.0 | 0.01 | 0.13 | 0.13 | 98 | 1007.7 |
| 20260502215402 | 50 | 174 | 0.0 | 1.0 | 0.01 | 0.13 | 0.13 | 98 | 1007.9 |
| 20260502214502 | 50 | 0 | 0.0 | 0.0 | 0.02 | 0.13 | 0.13 | 98 | 1007.8 |
| 20260502213602 | 50 | 173 | 0.0 | 1.0 | 0.02 | 0.13 | 0.13 | 98 | 1007.9 |
| 20260502212703 | 50 | 205 | 0.0 | 3.0 | 0.03 | 0.13 | 0.13 | 98 | 1007.9 |
| 20260502211802 | 50 | 172 | 0.0 | 1.0 | 0.03 | 0.13 | 0.13 | 98 | 1007.8 |
| 20260502210903 | 50 | 194 | 0.0 | 2.0 | 0.02 | 0.12 | 0.12 | 98 | 1008.1 |
| 20260502210003 | 50 | 181 | 0.0 | 2.0 | 0.03 | 0.12 | 0.12 | 98 | 1008.1 |
| 20260502205424 | 50 | 176 | 0.0 | 2.0 | 0.03 | 0.12 | 0.12 | 98 | 1008.3 |
| 20260502204524 | 50 | 173 | 0.0 | 2.0 | 0.02 | 0.11 | 0.11 | 98 | 1008.0 |
| 20260502203603 | 51 | 193 | 0.0 | 2.0 | 0.03 | 0.11 | 0.11 | 98 | 1008.1 |
| 20260502202703 | 51 | 183 | 0.0 | 1.0 | 0.02 | 0.10 | 0.10 | 98 | 1008.1 |
| 20260502201803 | 51 | 210 | 0.0 | 1.0 | 0.03 | 0.10 | 0.10 | 98 | 1008.2 |
| 20260502200903 | 51 | 224 | 1.0 | 2.0 | 0.04 | 0.10 | 0.10 | 98 | 1008.1 |
| 20260502200024 | 51 | 203 | 1.0 | 2.0 | 0.03 | 0.09 | 0.09 | 97 | 1008.3 |
| 20260502194503 | 52 | 213 | 1.0 | 3.0 | 0.04 | 0.09 | 0.09 | 97 | 1008.4 |
| 20260502193603 | 52 | 214 | 1.0 | 3.0 | 0.04 | 0.08 | 0.08 | 96 | 1008.2 |
| 20260502192703 | 52 | 202 | 1.0 | 2.0 | 0.04 | 0.08 | 0.08 | 96 | 1008.4 |
| 20260502191803 | 52 | 194 | 0.0 | 2.0 | 0.03 | 0.07 | 0.07 | 95 | 1008.3 |
| 20260502190903 | 52 | 186 | 1.0 | 2.0 | 0.03 | 0.06 | 0.06 | 94 | 1008.4 |
| 20260502190003 | 52 | 210 | 0.0 | 1.0 | 0.03 | 0.06 | 0.06 | 93 | 1008.4 |
| 20260502185403 | 52 | 183 | 0.0 | 2.0 | 0.02 | 0.05 | 0.05 | 92 | 1008.5 |
| 20260502184503 | 52 | 214 | 0.0 | 1.0 | 0.02 | 0.05 | 0.05 | 92 | 1008.4 |
| 20260502183624 | 52 | 196 | 0.0 | 2.0 | 0.01 | 0.04 | 0.04 | 92 | 1008.4 |
| 20260502182703 | 52 | 170 | 0.0 | 1.0 | 0.01 | 0.04 | 0.04 | 92 | 1008.1 |
| 20260502181803 | 52 | 165 | 0.0 | 2.0 | 0.01 | 0.04 | 0.04 | 92 | 1008.0 |
| 20260502180903 | 53 | 168 | 0.0 | 2.0 | 0.00 | 0.03 | 0.03 | 92 | 1007.9 |
| 20260502163603 | 53 | 184 | 0.0 | 2.0 | 0.02 | 0.02 | 0.02 | 94 | 1008.3 |
| 20260502162703 | 52 | 210 | 1.0 | 2.0 | 0.02 | 0.02 | 0.02 | 94 | 1008.3 |
| 20260502161824 | 53 | 198 | 1.0 | 2.0 | 0.02 | 0.02 | 0.02 | 94 | 1008.3 |
| 20260502160903 | 52 | 189 | 1.0 | 3.0 | 0.02 | 0.02 | 0.02 | 94 | 1008.5 |
| 20260502151803 | 55 | 229 | 2.0 | 4.0 | 0.00 | 0.00 | 0.00 | 87 | 1009.1 |
| 20260502150903 | 56 | 194 | 1.0 | 4.0 | 0.00 | 0.00 | 0.00 | 84 | 1009.1 |
| 20260502123603 | 56 | 211 | 2.0 | 8.0 | 0.00 | 0.00 | 0.00 | 85 | 1010.4 |
| 20260502122703 | 56 | 165 | 2.0 | 8.0 | 0.00 | 0.00 | 0.00 | 84 | 1010.5 |
| 20260502121803 | 56 | 165 | 2.0 | 6.0 | 0.00 | 0.00 | 0.00 | 83 | 1010.7 |
| 20260502120903 | 56 | 190 | 2.0 | 6.0 | 0.00 | 0.00 | 0.00 | 83 | 1010.6 |
| 20260502115403 | 57 | 225 | 2.0 | 7.0 | 0.00 | 0.00 | 0.00 | 80 | 1010.7 |
| 20260502114524 | 57 | 238 | 1.0 | 3.0 | 0.00 | 0.00 | 0.00 | 79 | 1010.7 |
| 20260502113603 | 57 | 234 | 2.0 | 4.0 | 0.00 | 0.00 | 0.00 | 79 | 1010.7 |
| 20260502112703 | 58 | 220 | 1.0 | 4.0 | 0.00 | 0.00 | 0.00 | 78 | 1010.4 |
| 20260502111803 | 59 | 212 | 1.0 | 4.0 | 0.00 | 0.00 | 0.00 | 71 | 1010.6 |
| 20260502110903 | 60 | 180 | 1.0 | 2.0 | 0.00 | 0.00 | 0.00 | 71 | 1010.6 |
| 20260502110023 | 60 | 192 | 1.0 | 3.0 | 0.00 | 0.00 | 0.00 | 72 | 1010.6 |
| 20260502105402 | 59 | 205 | 2.0 | 4.0 | 0.00 | 0.00 | 0.00 | 72 | 1010.5 |
| 20260502104501 | 58 | 189 | 2.0 | 9.0 | 0.00 | 0.00 | 0.00 | 74 | 1010.7 |
| 20260502103601 | 58 | 180 | 1.0 | 4.0 | 0.00 | 0.00 | 0.00 | 75 | 1011.0 |
| 20260502102701 | 58 | 212 | 1.0 | 4.0 | 0.00 | 0.00 | 0.00 | 74 | 1010.7 |
| 20260502100901 | 58 | 208 | 1.0 | 7.0 | 0.00 | 0.00 | 0.00 | 78 | 1010.8 |
| 20260502090902 | 60 | 166 | 1.0 | 4.0 | 0.00 | 0.00 | 0.00 | 70 | 1011.1 |
| 20260502070902 | 55 | 157 | 1.0 | 6.0 | 0.00 | 0.00 | 0.00 | 79 | 1011.2 |
| 20260502070002 | 53 | 189 | 1.0 | 6.0 | 0.00 | 0.00 | 0.00 | 82 | 1011.2 |
| 20260502065423 | 52 | 193 | 0.0 | 4.0 | 0.00 | 0.00 | 0.00 | 83 | 1011.3 |
| 20260502064502 | 52 | 200 | 0.0 | 2.0 | 0.00 | 0.00 | 0.00 | 83 | 1011.6 |
| 20260502063602 | 52 | 195 | 0.0 | 2.0 | 0.00 | 0.00 | 0.00 | 84 | 1011.2 |
| 20260502062702 | 51 | 193 | 0.0 | 2.0 | 0.00 | 0.00 | 0.00 | 85 | 1011.3 |
| 20260502061823 | 51 | 167 | 1.0 | 3.0 | 0.00 | 0.00 | 0.00 | 85 | 1011.5 |
| 20260502060902 | 50 | 200 | 0.0 | 2.0 | 0.00 | 0.00 | 0.00 | 88 | 1011.6 |
| 20260502060002 | 50 | 168 | 0.0 | 2.0 | 0.00 | 0.00 | 0.00 | 90 | 1011.4 |
| 20260502055402 | 49 | 150 | 0.0 | 2.0 | 0.00 | 0.00 | 0.00 | 91 | 1011.4 |
| 20260502054523 | 48 | 153 | 0.0 | 1.0 | 0.00 | 0.00 | 0.00 | 92 | 1011.5 |
| 20260502053602 | 48 | 173 | 0.0 | 1.0 | 0.00 | 0.00 | 0.00 | 93 | 1011.5 |
| 20260502052702 | 47 | 165 | 0.0 | 1.0 | 0.00 | 0.00 | 0.00 | 93 | 1011.5 |
| 20260502051802 | 47 | 191 | 0.0 | 2.0 | 0.00 | 0.00 | 0.00 | 93 | 1011.4 |
| 20260502050902 | 47 | 0 | 0.0 | 0.0 | 0.00 | 0.00 | 0.00 | 92 | 1011.5 |
| 20260502050002 | 47 | 144 | 0.0 | 1.0 | 0.00 | 0.00 | 0.00 | 92 | 1011.5 |
| 20260502045402 | 47 | 102 | 0.0 | 1.0 | 0.00 | 0.00 | 0.00 | 92 | 1011.5 |
| 20260502044523 | 48 | 154 | 0.0 | 1.0 | 0.00 | 0.00 | 0.00 | 92 | 1011.6 |
| 20260502043602 | 48 | 153 | 0.0 | 2.0 | 0.00 | 0.00 | 0.00 | 92 | 1011.6 |
| 20260502042702 | 48 | 0 | 0.0 | 0.0 | 0.00 | 0.00 | 0.00 | 92 | 1011.7 |
| 20260502041802 | 48 | 0 | 0.0 | 0.0 | 0.00 | 0.00 | 0.00 | 92 | 1011.8 |
| 20260502040902 | 47 | 0 | 0.0 | 0.0 | 0.00 | 0.00 | 0.00 | 91 | 1011.6 |
| 20260502040023 | 48 | 0 | 0.0 | 0.0 | 0.00 | 0.00 | 0.00 | 91 | 1011.8 |
| 20260502035423 | 48 | 0 | 0.0 | 0.0 | 0.00 | 0.00 | 0.00 | 90 | 1011.8 |
| 20260502034502 | 49 | 0 | 0.0 | 0.0 | 0.00 | 0.00 | 0.00 | 89 | 1011.8 |
| 20260502033602 | 49 | 176 | 0.0 | 2.0 | 0.00 | 0.00 | 0.00 | 88 | 1011.9 |
| 20260502032702 | 50 | 170 | 0.0 | 2.0 | 0.00 | 0.00 | 0.00 | 88 | 1011.9 |
| 20260502031823 | 50 | 163 | 0.0 | 2.0 | 0.00 | 0.00 | 0.00 | 89 | 1012.1 |
| 20260502030902 | 50 | 103 | 0.0 | 1.0 | 0.00 | 0.00 | 0.00 | 89 | 1012.2 |
| 20260502030002 | 50 | 0 | 0.0 | 0.0 | 0.00 | 0.00 | 0.00 | 88 | 1012.3 |
| 20260502025402 | 50 | 183 | 0.0 | 1.0 | 0.00 | 0.00 | 0.00 | 88 | 1012.4 |
| 20260502024502 | 50 | 183 | 0.0 | 3.0 | 0.00 | 0.00 | 0.00 | 88 | 1012.4 |
| 20260502023623 | 50 | 181 | 0.0 | 3.0 | 0.00 | 0.00 | 0.00 | 88 | 1012.5 |
| 20260502022702 | 50 | 187 | 0.0 | 4.0 | 0.00 | 0.00 | 0.00 | 88 | 1012.5 |
| 20260502021802 | 50 | 171 | 1.0 | 4.0 | 0.00 | 0.00 | 0.00 | 89 | 1012.6 |
| 20260502020902 | 50 | 165 | 1.0 | 3.0 | 0.00 | 0.00 | 0.00 | 89 | 1012.4 |
| 20260502020002 | 50 | 159 | 1.0 | 3.0 | 0.00 | 0.00 | 0.00 | 89 | 1012.7 |
| 20260502015402 | 50 | 164 | 1.0 | 3.0 | 0.00 | 0.00 | 0.00 | 89 | 1012.5 |
| 20260502014502 | 50 | 156 | 0.0 | 3.0 | 0.00 | 0.00 | 0.00 | 88 | 1012.9 |
| 20260502013602 | 50 | 161 | 0.0 | 2.0 | 0.00 | 0.00 | 0.00 | 88 | 1012.9 |
| 20260502012702 | 51 | 154 | 0.0 | 2.0 | 0.00 | 0.00 | 0.00 | 88 | 1012.9 |
| 20260502011823 | 51 | 161 | 0.0 | 2.0 | 0.00 | 0.00 | 0.00 | 86 | 1013.1 |
| 20260502010923 | 52 | 167 | 1.0 | 3.0 | 0.00 | 0.00 | 0.00 | 85 | 1013.0 |
| 20260502010002 | 52 | 151 | 0.0 | 2.0 | 0.00 | 0.00 | 0.00 | 84 | 1013.0 |
| 20260502005402 | 52 | 144 | 0.0 | 2.0 | 0.00 | 0.00 | 0.00 | 85 | 1013.2 |
| 20260502004502 | 51 | 174 | 0.0 | 3.0 | 0.00 | 0.00 | 0.00 | 87 | 1013.1 |
| 20260502003602 | 51 | 175 | 1.0 | 3.0 | 0.00 | 0.00 | 0.00 | 87 | 1013.1 |
| 20260502002702 | 51 | 120 | 0.0 | 2.0 | 0.00 | 0.00 | 0.00 | 87 | 1013.2 |
| 20260502001802 | 51 | 146 | 0.0 | 1.0 | 0.00 | 0.00 | 0.00 | 87 | 1013.3 |
| 20260502000923 | 52 | 13 | 0.0 | 2.0 | 0.00 | 0.00 | 0.00 | 87 | 1013.2 |
| 20260502000002 | 51 | 165 | 0.0 | 1.0 | 0.00 | 0.00 | 0.00 | 87 | 1013.3 |
| 20260501235402 | 52 | 214 | 0.0 | 1.0 | 0.00 | 0.00 | 0.00 | 87 | 1013.4 |
| 20260501234523 | 52 | 228 | 1.0 | 2.0 | 0.00 | 0.00 | 0.00 | 87 | 1013.4 |
| 20260501233602 | 52 | 204 | 0.0 | 1.0 | 0.00 | 0.00 | 0.00 | 86 | 1013.5 |
| 20260501232702 | 52 | 225 | 0.0 | 3.0 | 0.00 | 0.00 | 0.00 | 85 | 1013.4 |
| 20260501231802 | 52 | 180 | 0.0 | 3.0 | 0.00 | 0.00 | 0.00 | 85 | 1013.3 |
| 20260501230923 | 52 | 216 | 1.0 | 4.0 | 0.00 | 0.00 | 0.00 | 85 | 1013.5 |
| 20260501230002 | 52 | 205 | 1.0 | 4.0 | 0.00 | 0.00 | 0.00 | 85 | 1013.4 |
| 20260501225402 | 52 | 204 | 1.0 | 4.0 | 0.00 | 0.00 | 0.00 | 85 | 1013.5 |
| 20260501224502 | 52 | 164 | 0.0 | 2.0 | 0.00 | 0.00 | 0.00 | 85 | 1013.4 |
| 20260501223623 | 52 | 138 | 0.0 | 2.0 | 0.00 | 0.00 | 0.00 | 85 | 1013.4 |
| 20260501222702 | 52 | 151 | 1.0 | 2.0 | 0.00 | 0.00 | 0.00 | 84 | 1013.5 |
| 20260501221823 | 52 | 137 | 1.0 | 2.0 | 0.00 | 0.00 | 0.00 | 85 | 1013.6 |